Columbus AFB, MS

12:22 AM CDT on August 20, 2017 (GMT -0500)
Columbus Air Force Base

Weather History for KCBM - February, 2013

Change the Weather History Date:

Saturday, February 2, 2013

  Actual Average Record
Temperature  
Mean Temperature 41 °F -  
Max Temperature 56 °F 53 °F 75 °F (1997)
Min Temperature 26 °F 35 °F 24 °F (2000)
Degree Days  
Heating Degree Days 24    
Moisture  
Dew Point 34 °F    
Average Humidity 85    
Maximum Humidity 100    
Minimum Humidity 41    
Precipitation  
Precipitation 0.02 in - - ()
Sea Level Pressure  
Sea Level Pressure 30.22 in    
Wind  
Wind Speed 5 mph (SSW)    
Max Wind Speed 21 mph    
Max Gust Speed 24 mph    
Visibility 6 miles    
Events Fog , Rain    
Averages and records for this station are not official NWS values.
T = Trace of Precipitation, MM = Missing Value Source: NWS Daily Summary

Daily Weather History Graph

Daily Weather History Graph

Search for Another Location

Airport or City:

Trip Planner

Search our weather history database for the weather conditions in past years. The results will help you decide how hot, cold, wet, or windy it might be!

Date:

Astronomy

Feb. 02, 2013 Rise Set
Actual Time 6:49 AM CST 5:26 PM CST
Civil Twilight 6:23 AM CST 5:52 PM CST
Nautical Twilight 5:53 AM CST 6:22 PM CST
Astronomical Twilight 5:24 AM CST 6:51 PM CST
Moon No Moon Rise 10:21 AM CST (2/2)
Length of Visible Light 11h 29m
Length of Day
10h 36m
Waning Gibbous, 59% of the Moon is Illuminated
Feb 2
Waning Gibbous
Feb 3
Last Quarter
Feb 10
New
Feb 17
First Quarter
Feb 25
Full

Hourly Weather History & Observations

Time (CST) Temp. Windchill Dew Point Humidity Pressure Visibility Wind Dir Wind Speed Gust Speed Precip Events Conditions
12:58 AM 26.8 °F 19.3 °F 18.7 °F 72% 30.35 in 10.0 mi SE 6.9 mph - N/A   Clear
1:58 AM 26.6 °F 20.0 °F 19.0 °F 73% 30.34 in 10.0 mi SSE 5.8 mph - N/A   Clear
2:58 AM 26.8 °F 21.4 °F 18.9 °F 72% 30.33 in 10.0 mi ESE 4.6 mph - N/A   Clear
3:58 AM 26.1 °F - 18.7 °F 74% 30.32 in 10.0 mi ENE 1.2 mph - N/A   Clear
4:58 AM 26.8 °F 17.7 °F 18.9 °F 72% 30.30 in 10.0 mi SSE 9.2 mph - N/A   Clear
5:58 AM 30.6 °F 23.8 °F 18.7 °F 61% 30.29 in 10.0 mi SSE 6.9 mph - N/A   Clear
6:58 AM 32.0 °F 24.8 °F 19.6 °F 60% 30.29 in 10.0 mi SSE 8.1 mph - N/A   Partly Cloudy
7:58 AM 36.5 °F 31.0 °F 19.6 °F 50% 30.31 in 10.0 mi SSE 6.9 mph - N/A   Scattered Clouds
8:58 AM 39.0 °F 34.8 °F 19.2 °F 45% 30.32 in 10.0 mi Variable 5.8 mph - N/A   Overcast
9:58 AM 43.5 °F 40.1 °F 22.1 °F 43% 30.31 in 10.0 mi South 5.8 mph - N/A   Overcast
10:58 AM 47.8 °F - 26.6 °F 44% 30.27 in 10.0 mi SSW 6.9 mph - N/A   Mostly Cloudy
11:58 AM 53.6 °F - 30.2 °F 41% 30.22 in 10.0 mi South 8.1 mph - N/A   Scattered Clouds
12:58 PM 56.7 °F - 33.3 °F 41% 30.17 in 10.0 mi SSW 8.1 mph - N/A   Scattered Clouds
1:15 PM 55.4 °F - 33.8 °F 44% 30.15 in 10.0 mi South 10.4 mph - N/A Rain Light Rain
1:25 PM 53.6 °F - 35.6 °F 51% 30.15 in 10.0 mi South 6.9 mph - N/A Rain Light Rain
1:38 PM 51.8 °F - 39.2 °F 62% 30.14 in 10.0 mi South 5.8 mph - N/A   Overcast
1:58 PM 52.7 °F - 38.8 °F 59% 30.14 in 10.0 mi SSE 6.9 mph - 0.00 in   Overcast
2:00 PM 51.8 °F - 39.2 °F 62% 30.14 in 10.0 mi SSE 6.9 mph - N/A Rain Light Rain
2:16 PM 51.8 °F - 41.0 °F 67% 30.13 in 10.0 mi South 4.6 mph - N/A   Overcast
2:23 PM 51.8 °F - 42.8 °F 71% 30.15 in 10.0 mi South 3.5 mph - N/A Rain Light Rain
2:48 PM 51.8 °F - 44.6 °F 76% 30.16 in 10.0 mi North 20.7 mph 24.2 mph N/A Rain Light Rain
2:56 PM 48.2 °F - 41.0 °F 76% 30.17 in 10.0 mi NNW 20.7 mph - N/A   Overcast
2:59 PM 46.4 °F 39.2 °F 41.0 °F 81% 30.19 in 10.0 mi NNW 18.4 mph - 0.00 in   Overcast
3:08 PM 46.4 °F 40.7 °F 41.0 °F 81% 30.17 in 10.0 mi NNW 12.7 mph - N/A Rain Light Rain
3:10 PM 46.4 °F 41.1 °F 41.0 °F 81% 30.18 in 10.0 mi North 11.5 mph - N/A Rain Light Rain
3:40 PM 44.6 °F 40.7 °F 42.8 °F 93% 30.18 in 10.0 mi North 6.9 mph - N/A   Overcast
3:55 PM 44.6 °F 42.2 °F 42.8 °F 93% 30.18 in 10.0 mi NNW 4.6 mph - N/A   Overcast
3:58 PM 45.3 °F 42.3 °F 42.6 °F 90% 30.20 in 10.0 mi North 5.8 mph - 0.02 in   Overcast
4:08 PM 44.6 °F 43.1 °F 42.8 °F 93% 30.18 in 10.0 mi North 3.5 mph - N/A   Overcast
4:28 PM 46.4 °F - 42.8 °F 87% 30.18 in 10.0 mi North 1.2 mph - N/A   Mostly Cloudy
4:58 PM 46.0 °F - 42.8 °F 88% 30.19 in 10.0 mi Calm Calm - N/A   Clear
5:43 PM 42.8 °F - 41.0 °F 93% 30.18 in 4.0 mi SSE 1.2 mph - N/A   Clear
5:53 PM 41.0 °F - 39.2 °F 93% 30.18 in 8.0 mi SW 1.2 mph - N/A   Clear
5:58 PM 40.6 °F - 39.4 °F 95% 30.19 in 10.0 mi SW 1.2 mph - N/A   Clear
6:48 PM 39.2 °F - 37.4 °F 93% 30.19 in 4.0 mi Calm Calm - N/A   Clear
6:58 PM 39.2 °F - 39.2 °F 100% 30.21 in 4.0 mi Calm Calm - N/A   Clear
7:03 PM 39.2 °F - 39.2 °F 100% 30.19 in 1.0 mi Calm Calm - N/A   Clear
7:08 PM 39.2 °F - 37.4 °F 93% 30.19 in 0.5 mi Calm Calm - N/A Fog Fog
7:13 PM 37.4 °F - 35.6 °F 93% 30.19 in 0.2 mi Calm Calm - N/A Fog Fog
7:23 PM 37.4 °F - 35.6 °F 93% 30.20 in 0.5 mi NNW 1.2 mph - N/A Fog Fog
7:28 PM 37.4 °F - 37.4 °F 100% 30.20 in 0.2 mi NNW 2.3 mph - N/A Fog Fog
7:48 PM 37.4 °F - 37.4 °F 100% 30.21 in 0.5 mi Calm Calm - N/A Fog Fog
7:53 PM 37.4 °F - 35.6 °F 93% 30.21 in 0.8 mi Calm Calm - N/A   Clear
7:58 PM 35.6 °F - 35.6 °F 100% 30.23 in 0.5 mi NNW 1.2 mph - N/A Fog Fog
8:03 PM 35.6 °F - 35.6 °F 100% 30.21 in 0.5 mi Calm Calm - N/A Fog Fog
8:18 PM 35.6 °F - 33.8 °F 93% 30.21 in 0.8 mi Calm Calm - N/A   Clear
8:23 PM 35.6 °F - 33.8 °F 93% 30.22 in 1.2 mi Calm Calm - N/A   Clear
8:28 PM 35.6 °F - 35.6 °F 100% 30.22 in 0.8 mi NNW 2.3 mph - N/A   Clear
8:33 PM 35.6 °F - 35.6 °F 100% 30.22 in 0.8 mi NNW 2.3 mph - N/A   Clear
8:38 PM 35.6 °F - 35.6 °F 100% 30.22 in 0.5 mi Calm Calm - N/A Fog Fog
8:53 PM 35.6 °F - 35.6 °F 100% 30.22 in 0.8 mi Calm Calm - N/A   Clear
8:58 PM 35.6 °F - 35.6 °F 100% 30.24 in 1.0 mi NW 1.2 mph - N/A   Clear
9:08 PM 33.8 °F - 33.8 °F 100% 30.22 in 1.2 mi Calm Calm - N/A   Clear
9:13 PM 32.0 °F - 32.0 °F 100% 30.22 in 1.2 mi North - - N/A   Clear
9:18 PM 32.0 °F - 32.0 °F 100% 30.23 in 1.0 mi Calm Calm - N/A   Clear
9:23 PM 33.8 °F - 33.8 °F 100% 30.23 in 1.2 mi Calm Calm - N/A   Clear
9:28 PM 35.6 °F - 33.8 °F 93% 30.23 in 1.8 mi Calm Calm - N/A   Clear
9:33 PM 35.6 °F - 33.8 °F 93% 30.23 in 1.0 mi Calm Calm - N/A   Clear
9:38 PM 35.6 °F - 33.8 °F 93% 30.23 in 0.8 mi Calm Calm - N/A   Clear
9:48 PM 33.8 °F - 33.8 °F 100% 30.23 in 1.0 mi Calm Calm - N/A   Clear
9:58 PM 35.2 °F - 35.1 °F 99% 30.25 in 1.0 mi Calm Calm - N/A   Clear
10:08 PM 32.0 °F - 32.0 °F 100% 30.22 in 0.8 mi South 1.2 mph - N/A   Clear
10:18 PM 32.0 °F - 32.0 °F 100% 30.22 in 0.8 mi South 1.2 mph - N/A   Clear
10:23 PM 32.0 °F - 32.0 °F 100% 30.22 in 1.5 mi SW 2.3 mph - N/A   Clear
10:28 PM 32.0 °F - 32.0 °F 100% 30.22 in 2.0 mi Calm Calm - N/A   Clear
10:33 PM 32.0 °F - 32.0 °F 100% 30.22 in 2.5 mi Calm Calm - N/A   Clear
10:38 PM 32.0 °F - 32.0 °F 100% 30.23 in 5.0 mi West 1.2 mph - N/A   Clear
10:58 PM 32.0 °F - 32.0 °F 100% 30.25 in 2.0 mi Calm Calm - N/A   Clear
11:03 PM 32.0 °F - 32.0 °F 100% 30.22 in 1.2 mi Calm Calm - N/A   Clear
11:08 PM 32.0 °F - 32.0 °F 100% 30.22 in 2.0 mi Calm Calm - N/A   Clear
11:13 PM 32.0 °F - 32.0 °F 100% 30.22 in 5.0 mi Calm Calm - N/A   Clear
11:58 PM 32.0 °F - 31.8 °F 99% 30.23 in 10.0 mi Calm Calm - N/A   Clear